| time (UTC) | temp C | wind direction | speed KPH | gust KPH | rain 1hr cm | rain 24hr cm | rain mn cm | humidity % | barometer mb |
| 20260505040016 | 8 | 360 | 0.0 | 0.0 | 0.00 | 0.05 | 0.05 | 48 | 1002.7 |
| 20260505034515 | 8 | 360 | 0.0 | 8.0 | 0.00 | 0.05 | 0.05 | 48 | 1002.6 |
| 20260505033018 | 9 | 360 | 3.2 | 4.8 | 0.00 | 0.05 | 0.05 | 48 | 1002.4 |
| 20260505031522 | 9 | 360 | 1.6 | 4.8 | 0.00 | 0.05 | 0.05 | 47 | 1002.3 |
| 20260505030022 | 10 | 360 | 0.0 | 4.8 | 0.00 | 0.05 | 0.05 | 46 | 1002.1 |
| 20260505024537 | 10 | 360 | 0.0 | 8.0 | 0.00 | 0.05 | 0.05 | 47 | 1002.0 |
| 20260505023022 | 10 | 360 | 1.6 | 4.8 | 0.00 | 0.05 | 0.05 | 46 | 1001.8 |
| 20260505021518 | 11 | 360 | 0.0 | 1.6 | 0.00 | 0.05 | 0.05 | 46 | 1001.8 |
| 20260505020016 | 11 | 207 | 3.2 | 6.4 | 0.00 | 0.05 | 0.05 | 43 | 1001.6 |
| 20260505014518 | 12 | 346 | 0.0 | 0.0 | 0.00 | 0.05 | 0.05 | 44 | 1001.5 |
| 20260505013021 | 12 | 346 | 0.0 | 0.0 | 0.00 | 0.05 | 0.05 | 44 | 1001.6 |
| 20260505011519 | 12 | 346 | 0.0 | 0.0 | 0.00 | 0.05 | 0.05 | 43 | 1001.6 |
| 20260505010018 | 12 | 346 | 1.6 | 4.8 | 0.03 | 0.05 | 0.05 | 42 | 1001.6 |
| 20260505004521 | 12 | 360 | 0.0 | 11.3 | 0.03 | 0.05 | 0.05 | 35 | 1001.8 |
| 20260505003017 | 11 | 174 | 9.7 | 17.7 | 0.03 | 0.05 | 0.05 | 39 | 1001.7 |
| 20260505001516 | 11 | 168 | 14.5 | 25.7 | 0.05 | 0.05 | 0.05 | 42 | 1001.8 |
| 20260505000027 | 10 | 360 | 6.4 | 32.2 | 0.03 | 0.03 | 0.03 | 42 | 1002.8 |
| 20260504234513 | 10 | 360 | 17.7 | 32.2 | 0.03 | 0.03 | 0.03 | 51 | 1003.0 |
| 20260504233017 | 10 | 360 | 8.0 | 20.9 | 0.03 | 0.03 | 0.03 | 51 | 1003.1 |
| 20260504231522 | 10 | 360 | 14.5 | 35.4 | 0.00 | 0.00 | 0.00 | 48 | 1003.4 |
| 20260504230007 | 10 | 360 | 14.5 | 33.8 | 0.00 | 0.00 | 0.00 | 47 | 1003.3 |
| 20260504224506 | 12 | 360 | 8.0 | 29.0 | 0.00 | 0.00 | 0.00 | 41 | 1002.4 |
| 20260504223005 | 12 | 360 | 11.3 | 27.4 | 0.00 | 0.00 | 0.00 | 34 | 1002.1 |
| 20260504221502 | 13 | 360 | 16.1 | 33.8 | 0.00 | 0.00 | 0.00 | 36 | 1001.9 |
| 20260504220005 | 15 | 183 | 14.5 | 25.7 | 0.00 | 0.00 | 0.00 | 31 | 1001.9 |
| 20260504214501 | 16 | 360 | 19.3 | 27.4 | 0.00 | 0.00 | 0.00 | 27 | 1001.9 |
| 20260504213004 | 17 | 360 | 1.6 | 20.9 | 0.00 | 0.00 | 0.00 | 20 | 1001.4 |
| 20260504211501 | 18 | 355 | 8.0 | 17.7 | 0.00 | 0.00 | 0.00 | 18 | 1001.5 |
| 20260504210109 | 18 | 355 | 9.7 | 19.3 | 0.00 | 0.00 | 0.00 | 23 | 1001.8 |
| 20260504204602 | 17 | 5 | 3.2 | 14.5 | 0.00 | 0.00 | 0.00 | 23 | 1002.0 |
| 20260504203054 | 16 | 355 | 4.8 | 12.9 | 0.00 | 0.00 | 0.00 | 23 | 1002.2 |
| 20260504200050 | 16 | 59 | 4.8 | 20.9 | 0.00 | 0.00 | 0.00 | 24 | 1002.7 |
| 20260504194604 | 16 | 56 | 4.8 | 24.1 | 0.00 | 0.00 | 0.00 | 20 | 1002.7 |
| 20260504193048 | 16 | 55 | 6.4 | 17.7 | 0.00 | 0.00 | 0.00 | 24 | 1002.7 |
| 20260504190113 | 17 | 360 | 9.7 | 29.0 | 0.00 | 0.00 | 0.00 | 19 | 1003.0 |
| 20260504184556 | 17 | 360 | 9.7 | 17.7 | 0.00 | 0.00 | 0.00 | 22 | 1002.7 |
| 20260504183047 | 18 | 360 | 4.8 | 20.9 | 0.00 | 0.00 | 0.00 | 19 | 1002.8 |
| 20260504180115 | 17 | 144 | 12.9 | 27.4 | 0.00 | 0.00 | 0.00 | 23 | 1002.9 |
| 20260504174542 | 17 | 355 | 1.6 | 14.5 | 0.00 | 0.00 | 0.00 | 19 | 1003.1 |
| 20260504173053 | 17 | 42 | 8.0 | 16.1 | 0.00 | 0.00 | 0.00 | 20 | 1003.1 |
| 20260504140105 | 4 | 360 | 0.0 | 0.0 | 0.00 | 0.00 | 0.00 | 52 | 1005.4 |
| 20260504044532 | 8 | 360 | 0.0 | 0.0 | 0.00 | 0.00 | 0.00 | 32 | 1006.0 |
| 20260504043026 | 8 | 360 | 0.0 | 0.0 | 0.00 | 0.00 | 0.00 | 30 | 1006.0 |